#timestamp,LO_Frequency,Hit,StdDev 
1689832815.8,286046998.9,N
1689832835.6,286046999.4,N
1689832855.4,286046998.1,N
1689832875.3,286046998.7,N
1689832895.1,286047000.4,N
1689832915.9,286046998.3,N
1689832935.7,286046998.2,N
1689832955.5,286047000.6,N
1689832975.4,286046999.9,N
1689832995.2,286047000.3,N
1689833015.0,286047002.4,N
1689833015.9,286047002.4,N
1689833035.8,286047002.5,N
1689833055.6,286047001.5,N
1689833075.5,286047001.3,N
1689833095.3,286047001.4,N
1689833115.1,286047004.1,N
1689833135.9,286047005.6,Y
1689833155.7,286047005.2,P
1689833175.5,286047005.8,N
1689833195.4,286047004.8,N
1689833215.2,286047004.6,N
1689833235.1,286047005.1,N
1689833236.0,286047005.1,N
1689833255.8,286047001.9,N
1689833275.6,286047002.6,N
1689833295.5,286047002.4,N
1689833315.3,286046999.7,N
1689833335.1,286047002.6,N
1689833355.9,286047002.5,N
1689833375.7,286047001.6,N
1689833395.6,286047002.1,N
1689833415.4,286047002.7,N
1689833435.2,286047000.2,N
1689833455.1,286047000.0,N
1689833456.0,286047000.0,N
1689833475.8,286046998.9,N
1689833495.6,286046997.3,N
1689833515.5,286046998.3,N
1689833535.3,286046999.3,N
1689833555.2,286046998.3,N
1689833575.9,286047000.6,N
1689833595.7,286047001.2,N
1689833615.6,286047001.2,N
1689833635.4,286046999.0,N
1689833655.2,286046998.6,N
1689833675.1,286047000.5,N
1689833676.0,286047000.5,N
1689833695.8,286047001.2,N
1689833715.7,286047001.2,N
1689833735.5,286046998.9,N
1689833755.3,286046999.1,N
1689833775.2,286046998.4,N
1689833795.0,286046999.3,N
1689833795.9,286046999.3,N
1689833815.8,286046999.4,N
1689833835.6,286046999.5,N
1689833855.4,286046997.2,N
1689833875.3,286046995.3,Y
1689833895.1,286046995.1,P
1689833915.8,286046997.9,N
1689833935.7,286046997.5,N
1689833955.5,286046995.5,N
1689833975.4,286046995.3,N
1689833995.2,286046995.8,N
1689834015.0,286046995.1,N
1689834015.9,286046995.1,N
1689834035.8,286046997.8,N
1689834055.6,286046995.3,N
1689834075.5,286046993.3,Y
1689834095.3,286046996.6,P
1689834115.1,286046998.3,P
1689834135.9,286047000.8,N
1689834155.7,286047001.2,N
1689834175.5,286046998.2,N
1689834195.4,286047000.6,N
1689834215.2,286046996.5,N
1689834235.0,286046996.7,N
1689834236.0,286046996.7,N
1689834255.8,286046996.5,N
1689834275.6,286046999.1,N
1689834295.5,286046999.2,N
1689834315.3,286046998.6,N
1689834335.1,286047000.3,N
1689834355.9,286046998.2,N
1689834375.7,286046998.5,N
1689834395.5,286047001.2,N
1689834415.4,286047001.2,N
1689834435.2,286047000.8,N
1689834455.1,286047000.4,N
1689834456.0,286047000.4,N
1689834475.8,286047001.1,N
1689834495.6,286047001.1,N
1689834515.5,286047001.0,N
1689834535.3,286047001.1,N
1689834555.1,286046998.2,N
1689834575.9,286047000.9,N
1689834595.7,286047001.0,N
1689834615.6,286046999.0,N
1689834635.4,286047000.5,N
1689834655.2,286047000.7,N
1689834675.1,286046998.6,N
1689834676.0,286046998.6,N
1689834695.8,286047000.6,N
1689834715.7,286046999.7,N
1689834735.5,286047000.6,N
1689834755.3,286047000.3,N
1689834775.2,286047001.9,N
1689834795.0,286047001.9,N
1689834795.9,286047001.9,N
1689834815.7,286047001.3,N
1689834835.6,286047004.0,Y
1689834855.4,286047002.5,P
1689834875.3,286047001.3,N
1689834895.1,286047001.4,N
1689834915.8,286047001.6,N
1689834935.7,286047001.5,N
1689834955.5,286047002.8,Y
1689834975.4,286047001.1,P
1689834995.2,286046999.7,N
1689835015.0,286046998.2,N
1689835015.9,286046998.2,N
1689835035.8,286046996.9,N
1689835055.6,286046997.9,N
1689835075.5,286046997.3,N
1689835095.3,286046995.7,N
1689835115.1,286046995.0,N
1689835135.9,286046994.9,N
1689835155.7,286046997.8,N
1689835175.5,286046994.9,N
1689835195.4,286046997.6,N
1689835215.2,286046996.6,N
1689835235.1,286046996.6,N
1689835236.0,286046996.6,N
1689835255.8,286046999.4,N
1689835275.6,286046997.6,N
1689835295.5,286046994.9,N
1689835315.3,286046995.6,N
1689835335.1,286046996.2,N
1689835355.9,286046996.0,N
1689835375.7,286046998.0,N
1689835395.6,286046995.2,N
1689835415.4,286046997.8,N
1689835435.2,286046997.9,N
1689835455.1,286046995.9,N
1689835456.0,286046995.9,N
1689835475.8,286046993.7,Y
1689835495.6,286046996.5,P
1689835515.5,286047000.2,N
1689835535.3,286047000.5,N
1689835555.2,286047001.1,N
1689835575.9,286046998.3,N
1689835595.7,286046998.2,N
1689835615.6,286047000.7,N
1689835635.4,286047000.7,N
1689835655.2,286047000.0,N
1689835675.1,286047000.8,N
1689835676.0,286047000.8,N
1689835695.8,286047000.3,N
1689835715.7,286047002.7,N
1689835735.5,286046999.8,N
1689835755.3,286047002.0,N
1689835775.2,286046999.8,N
1689835795.0,286047002.0,N
1689835795.9,286047002.0,N
1689835815.7,286047002.3,N
1689835835.6,286047000.7,N
1689835855.4,286046998.6,N
1689835875.3,286046999.1,N
1689835895.1,286047002.5,N
1689835896.0,286047002.5,N
1689835915.8,286047003.0,N
1689835935.7,286047003.0,N
1689835955.5,286047005.7,Y
1689835975.4,286047003.0,P
1689835995.2,286047003.4,N
1689836015.0,286047003.1,N
1689836015.9,286047003.1,N
1689836035.8,286047003.0,N
1689836055.6,286047003.0,Y
1689836075.4,286047001.8,P
1689836095.3,286047003.3,P
1689836115.1,286047003.3,P
1689836135.9,286047003.1,Y
1689836155.7,286047000.2,P
1689836175.5,286047002.1,N
1689836195.4,286047002.1,N
1689836215.2,286047001.5,N
1689836235.1,286047002.3,N
1689836236.0,286047002.3,N
1689836255.8,286047002.6,Y
1689836275.6,286046999.4,P
1689836295.5,286046996.6,N
1689836315.3,286046998.0,N
1689836335.2,286046997.1,N
1689836355.9,286046996.5,N
1689836375.7,286046998.4,N
1689836395.6,286046996.9,N
